Home   Weather   Memphis   Past weeks

Flag for USA Past Weather in Memphis, Tennessee, USA — Yesterday and Last 2 Weeks

80 °F

Scattered clouds.

Feels Like: 80 °F
Forecast: 55 / 81 °F
Wind: 3 mph from Southeast

Location: Memphis International Airport

Current Time: Oct 25, 2016 at 5:53:53 PM

Latest Report: Oct 25, 2016 at 4:54 PM

Visibility: 10 mi

Pressure: 30.14 "Hg

Humidity: 41%

Dew Point: 54 °F

Location of MemphisLocation

Past Weather in Memphis — Graph


Memphis Temperature Yesterday

Maximum temperature yesterday: 80 °F (at 2:54 PM)
Minimum temperature yesterday: 55 °F (at 4:54 AM)
Average temperature yesterday: 67 °F

High & Low Weather Summary for the Past Weeks

High88 °F (Oct 19, 2:54 PM)100% (Oct 13, 8:54 AM)30.27 "Hg (Oct 13, 8:54 AM)
Low45 °F (Oct 22, 5:54 AM)27% (Oct 10, 3:54 PM)29.80 "Hg (Oct 17, 5:54 PM)
Average69 °F68%30.10 "Hg
* Reported Oct 10 3:54 PM — Oct 25 3:54 PM, Memphis, Weather by CustomWeather, © 2016

Note: Actual official high and low records may vary slightly from our data, if they occured in-between our weather recording intervals... More about our weather records


Memphis Weather History for the Previous 24 Hours

Scroll right to see more
Time TempWeatherWind HumidityBarometerVisibility
3:54 PM
Tue, Oct 25
81 °FScattered clouds.No wind38%30.16 "Hg10 mi
2:54 PM79 °FScattered clouds.No wind42%30.18 "Hg8 mi
1:54 PM79 °FScattered clouds.No wind41%30.22 "Hg10 mi
12:54 PM79 °FScattered clouds.3 mph41%30.24 "Hg10 mi
11:54 AM77 °FScattered clouds.No wind40%30.27 "Hg9 mi
10:54 AM72 °FPassing clouds.No wind46%30.27 "Hg10 mi
9:54 AM67 °FPassing clouds.No wind53%30.27 "Hg10 mi
8:54 AM61 °FPassing clouds.6 mph62%30.26 "Hg10 mi
7:54 AM56 °FPassing clouds.7 mph75%30.25 "Hg10 mi
6:54 AM55 °FSunny.8 mph77%30.24 "Hg10 mi
5:54 AM56 °FClear.5 mph75%30.25 "Hg10 mi
4:54 AM58 °FClear.5 mph70%30.23 "Hg10 mi
3:54 AM61 °FClear.8 mph60%30.24 "Hg10 mi
2:54 AM62 °FClear.8 mph60%30.23 "Hg10 mi
1:54 AM62 °FClear.7 mph60%30.24 "Hg10 mi
12:54 AM63 °FClear.7 mph60%30.24 "Hg10 mi
11:54 PM
Mon, Oct 24
65 °FClear.7 mph59%30.24 "Hg10 mi
10:54 PM65 °FClear.6 mph63%30.25 "Hg10 mi
9:54 PM66 °FClear.No wind65%30.24 "Hg10 mi
8:54 PM67 °FClear.No wind66%30.24 "Hg10 mi
7:54 PM69 °FClear.No wind63%30.23 "Hg10 mi
6:54 PM71 °FPassing clouds.3 mph59%30.22 "Hg10 mi
5:54 PM75 °FPassing clouds.6 mph52%30.21 "Hg10 mi
Weather by CustomWeather, © 2016

See weather overviewHow to use our weather pages